Vertical_Velocity
-0 -2 -4 3 -2 -1 -1 2 -1 -2 -2 1 2 1 0 -1 -0 -2 -1 -1 -1 0 -0 -0 0 -1 -1 -1 1 1 1 -0 1 -1 -1 -1 1 -0 -1 1 1 1 0 0 1 -1 -0 1 1 3 3 3 -5 -1
1 -3 -0 -1 0 -2 -0 -1 -1 -3 1 2 -0 2 1 -1 -1 -1 0 -1 -1 -1 1 0 -0 -0 -1 0 -1 0 1 -0 -0 -1 1 0 0 -0 -1 3 -4 -3 -6 -2 -3 -1 -8 -1 -5 -6 -3 -1 -4 -2
1 -2 -2 -2 -0 -0 -1 1 -0 -2 -1 1 2 2 -1 -1 0 -0 1 -1 -2 -0 -2 1 -0 -0 -1 -1 -0 -1 -1 0 0 -0 0 1 -0 -1 -0 4 1 -5 -8 -4 -4 1 -2 -4 -6 -8 -7 -4 -3 -6
2 -0 -1 0 0 -1 -1 2 1 -2 -1 -1 2 -1 1 0 0 1 0 0 1 2 -1 0 0 -1 0 -0 -0 -1 -2 -0 -0 -2 0 0 -2 -1 4 -4 14 -17 -1 -3 4 2 -8 -4 -1 -5 -3 -6 -5 -5
-2 -2 -1 0 1 2 0 2 1 1 1 -0 2 -1 3 1 1 2 3 0 1 -1 1 1 -2 1 3 1 1 -0 -1 -2 -2 -2 -1 -0 2 -15 3 1 25 -15 -3 -6 3 -11 4 -0 -1 2 -3 -4 -4 -4
-2 -1 -1 -3 -1 2 2 1 4 4 2 1 3 2 4 -0 -0 -0 -1 4 1 -3 3 -1 3 0 1 2 1 0 -0 1 -3 -2 1 3 4 -15 -9 5 9 -7 6 -7 1 -7 -4 -9 -7 -7 -5 -8 -5 -2
-0 -2 -0 -3 -2 1 -1 1 0 3 1 3 3 3 5 2 -0 1 2 4 3 -1 -2 -6 -3 4 2 1 1 0 -1 -0 -6 -2 3 -4 3 -14 -7 15 -33 7 -3 -1 1 1 2 -4 -3 -0 -2 -5 -3 -3
0 -0 -0 -2 -2 -3 -0 3 0 3 3 0 1 3 2 -2 -0 1 6 5 -2 -4 -7 -11 1 9 3 1 3 -0 -0 -5 -0 -6 7 -2 -10 -4 13 -12 -13 -6 -8 -2 -3 -3 -2 -0 -2 -5 -3 -4 0 -1
1 1 1 -0 -1 2 -1 -6 1 3 0 1 2 2 -3 -4 -3 14 5 -2 -2 -13 -10 -2 3 7 8 7 4 1 -4 -4 -4 1 -1 -15 0 12 7 -15 -3 -6 -5 1 -4 -3 -1 -2 0 -0 -2 -4 -2 -2
1 -0 -2 -0 -1 -0 -0 1 -0 5 -1 2 1 -1 -2 1 9 4 2 -9 -21 -6 -14 -1 10 4 12 9 0 3 1 -2 -15 -2 -9 -14 -0 12 13 -14 -6 -6 -3 -3 -5 -3 -0 -3 -2 -1 2 -1 -3 -2
0 -1 -2 -1 -1 -3 -0 1 2 4 -1 1 2 -3 -2 5 2 4 -2 -14 -11 -11 -4 5 12 15 5 5 8 -6 -0 -9 -18 -4 -3 -18 21 13 -3 -1 -6 -3 -2 -4 -4 0 -0 -4 -5 -4 -1 -4 -3 -2
-1 -2 -1 -3 -1 3 1 -1 0 7 0 1 4 3 -2 -0 4 -10 -7 -11 -14 -13 -10 6 23 0 2 11 7 -1 2 -10 -18 -2 -12 -12 42 -4 2 -1 -2 -1 -1 -1 3 -1 -4 -2 -5 -2 -2 -4 -3 1
-1 -1 1 -1 0 -1 4 2 3 2 7 3 3 7 -2 3 -23 -28 -4 -8 7 16 8 21 14 -0 -2 11 6 4 -5 -7 -7 -20 -15 27 6 -4 2 -7 -8 -1 2 -0 1 -0 -2 -3 1 1 -3 -2 -0 2
-4 -2 -3 -1 -0 -1 6 3 0 5 4 9 3 -5 5 -24 -30 -7 12 4 9 4 3 -2 1 8 -3 -2 5 -1 1 -6 -23 -15 20 11 -11 -3 1 2 2 0 3 -0 -1 4 -5 -2 5 1 -2 1 4 5
-2 -3 -3 -4 -1 -1 5 3 3 1 4 7 -7 -9 -22 9 -1 -2 3 6 5 8 -4 4 -2 3 6 -6 3 -1 -4 -15 -15 7 12 7 3 -4 1 1 -3 -1 4 -2 -4 -4 -4 -2 -0 0 1 0 1 5
-3 -8 -0 1 -5 2 1 5 5 0 2 6 -20 -32 3 12 10 1 5 3 -1 1 4 10 5 0 -1 -2 -2 -5 -11 -4 9 3 8 12 -0 4 1 -1 -1 2 1 1 -1 -4 -1 -1 4 1 -2 -1 1 1
-12 9 -1 -4 1 3 6 -0 3 -7 -0 -25 -26 3 1 11 5 4 7 9 7 4 2 6 2 6 2 -10 -12 -5 -10 19 9 2 1 3 -3 2 8 2 -2 -3 -0 -1 -2 -2 -0 1 2 -0 2 2 1 -1
8 1 3 3 3 4 5 1 -3 -5 -25 -15 -7 15 2 8 4 6 16 12 5 4 5 3 8 -2 -4 -9 -4 6 -2 2 6 2 1 7 3 -2 0 -4 -3 -1 -1 -0 -2 2 3 -0 1 1 2 2 0 -4
2 -2 1 2 2 2 -0 -3 -4 -24 -3 4 0 6 0 3 0 11 16 15 3 2 8 -1 -9 -9 1 4 7 9 -1 6 1 1 0 -4 -4 -1 -0 1 -2 1 1 -4 2 3 6 2 1 1 0 -3 -1 -0
2 5 6 7 6 -0 -1 -7 -3 -16 -4 9 0 3 6 3 14 5 3 5 13 1 -17 -18 -3 -2 7 14 6 2 -1 -1 -1 -4 -1 -3 -0 2 5 2 -2 -0 1 1 -0 0 2 3 -1 1 -1 -1 -2 0
1 3 -4 -2 -2 -2 -1 -5 -7 -6 2 2 15 12 -3 3 0 7 10 9 -9 -18 -5 7 7 5 5 3 2 8 1 -3 2 6 2 4 4 7 4 -1 -1 -0 2 1 3 0 -2 -0 -0 -0 -1 -3 -3 -3
-2 2 5 6 -1 -1 -8 -9 -9 -0 -5 4 1 5 -5 -1 3 0 11 -4 -2 8 1 6 2 3 -0 2 2 0 -0 -1 0 -0 3 -6 -5 -1 1 -0 -3 3 2 -1 0 4 -0 -3 -1 1 -1 -0 -2 -2
-1 -0 0 3 -1 -3 -5 1 -3 4 0 6 8 4 2 3 3 7 -5 -3 -2 0 3 2 0 -0 3 -0 -5 -2 -0 0 2 -1 -2 4 2 1 -1 0 2 0 1 0 -0 0 2 -1 -1 1 0 -2 -2 0
4 2 3 4 7 6 2 0 4 4 4 6 4 -1 4 5 6 1 -0 6 11 7 5 4 1 -0 -3 -2 -2 0 1 1 1 2 2 -1 1 1 1 -3 -2 -2 1 6 -1 -1 -1 3 3 -1 -3 -1 -2 -4
5 -0 1 0 5 2 1 -2 1 -0 1 3 2 6 4 6 6 2 -3 -6 -5 -3 1 2 1 2 2 -0 1 1 -0 -0 -0 1 -4 5 3 -1 -2 -0 -2 -5 -0 0 2 3 2 2 -1 -2 -1 -3 -5 -3
0 1 0 2 -1 -4 5 -2 3 8 5 6 4 3 3 -0 -5 -6 0 5 8 3 5 2 -0 0 2 2 2 1 -1 -0 0 -1 -3 1 1 1 1 1 1 -6 3 2 1 2 2 -1 -1 -2 -0 -3 -5 -4
-1 5 8 1 1 0 -1 0 3 11 3 -1 1 -1 1 -4 7 12 8 3 -1 1 2 3 3 2 1 -0 1 2 2 2 1 -1 -3 -2 -0 2 3 5 4 -2 -3 -1 -1 -0 -1 -1 -3 -2 -1 -0 -3 -5
6 -1 -1 1 0 -0 -2 -1 4 8 7 3 -4 -3 2 6 12 6 1 3 2 1 1 1 2 2 1 0 0 1 1 -0 -0 0 -2 1 -2 -2 -4 -3 -1 -1 1 0 -2 -3 -4 -2 2 1 -0 -1 -1 -3
0 4 4 4 4 2 4 11 13 8 6 6 7 5 3 2 2 1 -0 1 2 2 2 1 2 1 0 0 -0 -2 -2 -3 -2 -2 -2 -4 -5 -2 1 -1 -2 -3 -2 0 -1 -0 0 1 1 -0 1 -1 -1 0
0 -1 0 2 2 3 3 0 0 2 2 2 2 1 2 2 2 1 1 1 1 2 2 3 1 -0 -0 -2 -5 -5 -0 1 1 -0 1 -0 -1 -3 -5 -5 -3 -3 -3 -0 3 4 -1 2 1 -1 -0 -1 -0 1
-2 0 -1 1 2 2 1 2 2 1 1 1 1 1 2 1 2 1 2 2 1 -0 -0 -2 -2 -1 -2 -1 -1 -1 -6 -9 -7 -8 -6 -2 -2 -2 -1 -2 -3 -2 -2 -3 -2 0 2 -1 -1 -1 -2 -2 -0 -1
1 -1 -2 -1 0 1 0 -0 1 1 0 0 -0 1 1 1 2 1 -1 -1 -2 -2 -2 -2 -2 -3 -4 -2 -3 -4 0 1 -1 -1 -0 -0 -1 -1 -2 -2 -2 -1 -1 -1 0 -0 -1 -1 -1 -1 -2 -1 -2 -1
-0 0 0 0 1 1 -0 -0 -0 -1 1 0 -0 -1 -2 -2 -3 -2 -1 -0 0 -0 -1 -1 -2 -3 -2 -0 -1 -3 -3 -2 -0 1 1 -0 -0 0 2 1 -0 -2 0 1 -0 -1 -1 -1 -1 -1 -2 -1 -0 0
Height
5611 5620 5628 5637 5645 5652 5658 5665 5670 5675 5680 5684 5689 5692 5696 5698 5701 5704 5706 5708 5711 5713 5714 5715 5716 5716 5717 5717 5717 5718 5719 5718 5718 5718 5718 5718 5718 5718 5717 5717 5716 5715 5714 5713 5711 5710 5709 5707 5705 5704 5701 5696 5693 5688
5597 5606 5614 5623 5630 5637 5644 5651 5657 5662 5668 5674 5678 5682 5683 5687 5690 5694 5697 5700 5703 5705 5707 5708 5709 5710 5711 5712 5712 5712 5712 5712 5712 5713 5713 5713 5713 5712 5712 5712 5710 5711 5708 5707 5706 5705 5702 5698 5696 5693 5690 5686 5681 5676
5585 5592 5600 5608 5616 5624 5631 5638 5645 5650 5656 5662 5667 5671 5674 5676 5679 5682 5685 5689 5692 5695 5698 5700 5702 5703 5704 5705 5706 5706 5706 5706 5706 5706 5706 5706 5706 5706 5705 5704 5703 5703 5700 5698 5697 5697 5692 5689 5686 5683 5679 5674 5668 5662
5573 5580 5588 5595 5602 5609 5617 5624 5631 5637 5644 5649 5655 5658 5663 5666 5668 5671 5674 5678 5681 5685 5687 5691 5692 5694 5695 5696 5697 5698 5699 5698 5698 5698 5698 5698 5698 5698 5697 5695 5696 5692 5690 5687 5689 5685 5681 5678 5674 5669 5664 5659 5654 5648
5560 5568 5576 5583 5590 5596 5603 5611 5618 5624 5630 5636 5642 5646 5651 5655 5658 5660 5663 5667 5670 5675 5677 5680 5682 5684 5685 5687 5688 5688 5688 5689 5689 5689 5689 5689 5689 5687 5687 5686 5688 5681 5678 5678 5675 5670 5668 5663 5660 5656 5651 5646 5639 5633
5548 5556 5563 5570 5577 5584 5591 5598 5605 5611 5617 5623 5628 5634 5638 5642 5646 5649 5653 5656 5659 5661 5665 5669 5672 5673 5674 5676 5678 5677 5677 5677 5678 5678 5678 5678 5678 5676 5675 5677 5675 5669 5668 5665 5663 5657 5653 5649 5645 5641 5637 5632 5625 5618
5534 5542 5550 5556 5564 5571 5578 5586 5592 5598 5604 5609 5614 5620 5625 5629 5634 5638 5642 5644 5646 5649 5654 5657 5660 5663 5664 5665 5665 5666 5666 5666 5667 5667 5667 5667 5667 5664 5664 5665 5660 5659 5656 5652 5648 5643 5639 5634 5631 5626 5621 5616 5610 5604
5519 5527 5535 5542 5551 5558 5566 5572 5579 5585 5590 5595 5600 5605 5610 5616 5621 5626 5629 5632 5633 5637 5642 5644 5649 5652 5653 5653 5653 5653 5653 5653 5654 5653 5655 5654 5654 5651 5653 5647 5644 5645 5643 5639 5634 5630 5626 5621 5616 5613 5608 5603 5597 5592
5507 5514 5521 5529 5536 5544 5551 5558 5566 5571 5575 5580 5585 5590 5595 5602 5608 5613 5614 5617 5622 5628 5630 5634 5637 5638 5639 5639 5639 5639 5638 5638 5640 5642 5642 5642 5643 5642 5637 5631 5630 5631 5628 5625 5620 5617 5614 5610 5605 5601 5596 5591 5586 5581
5492 5500 5507 5514 5521 5529 5536 5542 5551 5557 5560 5565 5570 5576 5583 5589 5593 5596 5598 5602 5609 5615 5620 5623 5625 5626 5626 5624 5623 5624 5623 5623 5627 5631 5627 5629 5632 5630 5621 5616 5617 5616 5613 5610 5608 5606 5602 5599 5595 5590 5585 5580 5575 5571
5479 5485 5492 5500 5507 5514 5521 5527 5535 5540 5544 5549 5554 5559 5565 5570 5574 5578 5583 5592 5598 5604 5607 5611 5612 5612 5613 5612 5609 5608 5609 5608 5610 5616 5610 5614 5620 5616 5608 5605 5603 5601 5599 5598 5596 5593 5590 5587 5583 5580 5575 5570 5566 5561
5465 5471 5478 5485 5492 5498 5505 5511 5518 5523 5527 5533 5538 5542 5546 5550 5554 5561 5575 5583 5588 5591 5594 5596 5599 5599 5601 5597 5592 5591 5592 5590 5595 5599 5599 5601 5607 5600 5596 5591 5588 5587 5586 5585 5583 5580 5578 5575 5572 5568 5563 5559 5555 5550
5450 5457 5463 5469 5477 5484 5490 5495 5501 5505 5511 5515 5520 5523 5527 5531 5536 5554 5566 5572 5574 5580 5583 5585 5582 5582 5580 5581 5575 5576 5575 5577 5579 5582 5585 5590 5588 5584 5579 5575 5576 5575 5574 5573 5571 5568 5566 5563 5559 5554 5550 5546 5542 5537
5436 5442 5448 5455 5462 5469 5475 5479 5482 5488 5494 5498 5499 5505 5509 5522 5531 5545 5552 5556 5558 5560 5561 5561 5560 5562 5562 5565 5559 5559 5560 5562 5564 5569 5575 5576 5570 5569 5568 5566 5564 5563 5563 5560 5558 5555 5553 5550 5546 5542 5538 5534 5529 5524
5422 5427 5433 5439 5445 5452 5457 5461 5464 5467 5473 5476 5479 5485 5506 5518 5523 5528 5533 5535 5539 5541 5542 5543 5543 5545 5545 5545 5546 5545 5545 5548 5552 5560 5564 5560 5555 5555 5555 5552 5551 5552 5550 5548 5546 5544 5540 5537 5533 5529 5525 5520 5516 5511
5407 5413 5421 5423 5427 5434 5439 5442 5443 5446 5452 5455 5461 5484 5501 5503 5508 5513 5517 5518 5520 5521 5522 5524 5525 5525 5527 5529 5531 5533 5535 5540 5546 5547 5546 5544 5538 5541 5541 5540 5540 5539 5536 5535 5533 5530 5526 5523 5519 5515 5511 5507 5502 5497
5394 5402 5402 5408 5415 5418 5421 5423 5425 5430 5434 5440 5465 5480 5484 5488 5491 5495 5496 5498 5499 5501 5504 5506 5506 5511 5512 5512 5518 5522 5530 5534 5529 5529 5528 5527 5527 5529 5527 5527 5526 5524 5522 5520 5517 5514 5512 5509 5505 5502 5497 5492 5487 5481
5383 5386 5392 5395 5398 5402 5406 5408 5410 5413 5421 5442 5453 5466 5462 5470 5473 5476 5480 5479 5479 5483 5486 5487 5490 5491 5497 5503 5509 5512 5512 5514 5514 5515 5515 5514 5514 5514 5514 5513 5511 5509 5507 5506 5503 5501 5498 5495 5492 5488 5483 5478 5473 5466
5375 5377 5381 5384 5387 5389 5391 5394 5397 5401 5418 5427 5437 5439 5442 5449 5455 5457 5455 5457 5461 5466 5467 5471 5473 5483 5487 5490 5493 5495 5497 5499 5499 5501 5502 5501 5501 5501 5500 5498 5496 5495 5493 5493 5490 5488 5484 5481 5477 5473 5469 5463 5458 5452
5370 5373 5375 5377 5378 5379 5381 5384 5387 5392 5405 5413 5417 5423 5425 5431 5434 5436 5438 5440 5443 5445 5453 5459 5466 5471 5475 5476 5479 5480 5482 5484 5485 5487 5486 5486 5487 5485 5485 5485 5484 5483 5481 5478 5476 5472 5470 5466 5462 5458 5454 5448 5443 5437
5365 5366 5367 5369 5372 5374 5375 5375 5378 5384 5389 5395 5402 5405 5409 5414 5417 5420 5423 5426 5427 5435 5441 5449 5452 5456 5460 5463 5464 5467 5469 5470 5473 5474 5474 5474 5474 5473 5472 5472 5471 5470 5467 5465 5462 5458 5455 5451 5447 5443 5438 5432 5426 5419
5355 5356 5358 5360 5363 5364 5366 5367 5372 5375 5382 5386 5391 5396 5399 5402 5406 5408 5411 5411 5414 5423 5429 5434 5438 5441 5445 5449 5450 5452 5455 5457 5459 5460 5460 5460 5460 5460 5460 5459 5458 5456 5452 5449 5448 5445 5440 5436 5433 5428 5422 5416 5409 5402
5347 5349 5351 5353 5354 5356 5360 5363 5366 5370 5374 5378 5383 5386 5389 5392 5396 5399 5401 5406 5411 5416 5421 5424 5427 5430 5434 5435 5436 5438 5440 5443 5445 5446 5447 5448 5447 5447 5446 5445 5443 5441 5439 5436 5434 5430 5426 5421 5417 5411 5406 5400 5393 5387
5345 5346 5347 5350 5354 5354 5357 5359 5363 5365 5369 5373 5376 5378 5382 5386 5391 5394 5399 5405 5409 5411 5413 5416 5418 5420 5423 5424 5427 5429 5431 5432 5433 5434 5435 5435 5435 5434 5433 5431 5430 5428 5426 5422 5418 5415 5410 5405 5400 5395 5390 5384 5378 5375
5347 5349 5350 5352 5356 5359 5360 5361 5363 5365 5368 5372 5376 5379 5381 5386 5390 5394 5397 5399 5402 5404 5406 5408 5409 5411 5413 5415 5417 5418 5419 5420 5422 5422 5423 5424 5423 5421 5421 5418 5416 5414 5412 5408 5404 5400 5395 5390 5385 5381 5375 5371 5367 5363
5347 5349 5352 5354 5357 5359 5362 5364 5366 5369 5372 5375 5376 5379 5381 5384 5387 5390 5393 5397 5399 5400 5401 5402 5402 5403 5404 5405 5407 5409 5410 5411 5411 5412 5412 5412 5411 5410 5408 5405 5402 5400 5398 5394 5390 5385 5380 5376 5372 5368 5364 5359 5355 5351
5348 5349 5352 5355 5357 5360 5362 5364 5366 5371 5373 5375 5377 5378 5380 5381 5385 5390 5392 5392 5392 5394 5395 5396 5398 5399 5400 5400 5401 5402 5402 5403 5403 5402 5402 5401 5399 5397 5394 5391 5388 5385 5382 5378 5374 5370 5367 5363 5359 5355 5351 5348 5344 5341
5352 5352 5354 5356 5357 5359 5361 5364 5366 5369 5371 5373 5374 5375 5377 5381 5385 5386 5386 5388 5389 5390 5391 5392 5393 5393 5394 5394 5394 5395 5395 5394 5393 5392 5389 5387 5384 5382 5380 5377 5374 5371 5368 5365 5362 5358 5354 5351 5348 5344 5341 5338 5335 5332
5357 5357 5358 5358 5360 5361 5362 5365 5367 5370 5371 5373 5375 5377 5378 5379 5381 5382 5383 5385 5385 5386 5387 5388 5388 5388 5388 5388 5387 5387 5385 5384 5382 5379 5376 5373 5370 5368 5366 5363 5360 5357 5355 5352 5349 5345 5342 5339 5336 5334 5331 5329 5327 5325
5361 5362 5362 5362 5361 5362 5363 5365 5367 5368 5370 5372 5373 5375 5376 5378 5379 5380 5381 5382 5383 5383 5384 5384 5383 5383 5381 5380 5378 5376 5375 5373 5371 5369 5367 5364 5360 5356 5352 5349 5346 5343 5340 5338 5336 5333 5330 5327 5325 5323 5321 5320 5319 5318
5359 5360 5361 5362 5363 5364 5365 5366 5367 5368 5370 5371 5373 5374 5375 5376 5377 5378 5378 5379 5379 5379 5379 5378 5377 5376 5374 5373 5371 5368 5364 5361 5359 5356 5353 5350 5347 5343 5339 5336 5332 5329 5326 5324 5322 5320 5318 5316 5314 5313 5313 5313 5312 5312
5356 5357 5358 5359 5361 5362 5363 5365 5366 5367 5368 5370 5371 5372 5372 5373 5373 5374 5374 5374 5374 5374 5373 5373 5372 5370 5369 5366 5364 5361 5358 5354 5350 5346 5341 5337 5333 5329 5325 5322 5319 5316 5314 5312 5311 5309 5309 5308 5307 5307 5307 5308 5308 5308
5351 5352 5354 5356 5357 5359 5361 5362 5363 5364 5365 5366 5367 5368 5368 5369 5370 5371 5370 5370 5371 5370 5370 5368 5366 5365 5363 5360 5356 5352 5347 5343 5339 5335 5331 5326 5321 5317 5313 5309 5305 5303 5302 5301 5301 5301 5301 5302 5303 5304 5305 5306 5307 5307